This is the latest recevied weather packets stored in our database for station/object KQ4PPF. If no packets are shown the sender has not sent any weather packets the latest 10 day(s).
| Time | Temp. | Humidity | Pressure | Rain* | Wind** | Luminosity | Snow |
|---|---|---|---|---|---|---|---|
| 1777831180 | 17.78° C | 42% | 1020 hPa | 0 mm | - | 661 W/m² | - |
| 1777830878 | 17.78° C | 41% | 1020.1 hPa | 0 mm | - | 815 W/m² | - |
| 1777830573 | 17.78° C | 44% | 1020.3 hPa | 0 mm | - | 809 W/m² | - |
| 1777830272 | 17.78° C | 39% | 1020.3 hPa | 0 mm | - | 795 W/m² | - |
| 1777829972 | 17.78° C | 44% | 1020.3 hPa | 0 mm | - | 787 W/m² | - |
| 1777829668 | 17.78° C | 40% | 1020.5 hPa | 0 mm | - | 776 W/m² | - |
| 1777829365 | 17.78° C | 41% | 1020.7 hPa | 0 mm | - | 777 W/m² | - |
| 1777829063 | 17.22° C | 46% | 1020.5 hPa | 0 mm | - | 782 W/m² | - |
| 1777828758 | 17.78° C | 44% | 1020.6 hPa | 0 mm | - | 789 W/m² | - |
| 1777828455 | 17.78° C | 47% | 1020.3 hPa | 0 mm | - | 806 W/m² | - |
| 1777828153 | 17.22° C | 47% | 1020.7 hPa | 0 mm | - | 804 W/m² | - |
| 1777827849 | 16.67° C | 47% | 1020.8 hPa | 0 mm | - | 792 W/m² | - |
| 1777827546 | 16.67° C | 50% | 1020.8 hPa | 0 mm | - | 787 W/m² | - |
| 1777827244 | 17.22° C | 49% | 1020.8 hPa | 0 mm | - | 794 W/m² | - |
| 1777826939 | 17.22° C | 45% | 1021.2 hPa | 0 mm | - | 796 W/m² | - |
| 1777826637 | 17.22° C | 46% | 1021.2 hPa | 0 mm | - | 799 W/m² | - |
| 1777826333 | 16.67° C | 49% | 1021.1 hPa | 0 mm | - | 793 W/m² | - |
| 1777826031 | 16.67° C | 44% | 1021.2 hPa | 0 mm | - | 801 W/m² | - |
| 1777825727 | 17.22° C | 43% | 1021.4 hPa | 0 mm | - | 830 W/m² | - |
| 1777825426 | 16.67° C | 45% | 1021.2 hPa | 0 mm | - | 773 W/m² | - |
| 1777825122 | 16.67° C | 47% | 1021.3 hPa | 0 mm | - | 732 W/m² | - |
| 1777824818 | 17.22° C | 45% | 1021.5 hPa | 0 mm | - | 766 W/m² | - |
| 1777824515 | 16.67° C | 49% | 1021.4 hPa | 0 mm | - | 812 W/m² | - |
| 1777824211 | 16.11° C | 46% | 1021.3 hPa | 0 mm | - | 837 W/m² | - |
| 1777823907 | 16.67° C | 46% | 1021.5 hPa | 0 mm | - | 850 W/m² | - |
* Rain latest hour (hover to see other rain measurements)
** Current wind speed in m/s (hover to see current wind gust speed)